Flag for United Arab Emirates Weather past 2 weeks in Sharjah, Sharjah, United Arab Emirates

Now
102 °F

Sunny.


Feels Like: 100 °F
Forecast: 91 / 103 °F
Wind: 1 mph from North

Location: Sharjah International Airport

Current Time: Sep 3, 2014 at 10:42:32 AM

Latest Report: Sep 3, 2014 at 10:00 AM


Visibility: 10 mi

Pressure: 29.62 "Hg

Humidity: 18%

Dew point: 52 °F

Location of SharjahLocation

Historic Weather in Sharjah — Graph

°F

Sharjah temperature yesterday

Maximum temperature yesterday: 108 °F (at 12:00 PM)
Minimum temperature yesterday: 81 °F (at 5:00 AM)
Average temperature yesterday: 95 °F

Past Weeks' High & Low Weather Summary

 TemperatureHumidityPressure
High108 °F (Aug 22, 12:00 PM)94% (Sep 1, 7:00 AM)29.77 "Hg (Sep 1, 7:00 AM)
Low79 °F (Sep 3, 7:00 AM)15% (Sep 2, 6:00 PM)29.47 "Hg (Aug 22, 2:00 AM)
Average95 °F50%29.60 "Hg
* Reported Aug 19 9:00 AM — Sep 3 9:00 AM, Sharjah, Weather by CustomWeather, © 2014

Note: Actual official high and low records may vary slightly from our data, if they occured in-between our weather recording intervals... More about our weather records

Advertising

Sharjah weather history for previous 24 hours

 ConditionsComfort  
Time TempWeatherWind HumidityBarometerVisibility
9:00 AM
Sep 3
95 °FPassing clouds.8 mph28%29.62 "HgN/A
8:00 AM88 °FClear.3 mph40%29.59 "Hg5 mi
7:00 AM79 °FClear.3 mph54%29.59 "Hg5 mi
6:00 AM82 °FPassing clouds.3 mph48%29.56 "HgN/A
5:00 AM82 °FClear.3 mph48%29.56 "Hg10 mi
4:00 AM84 °FClear.2 mph48%29.56 "Hg10 mi
3:00 AM86 °FPassing clouds.3 mph49%29.56 "HgN/A
1:00 AM90 °FClear.2 mph41%29.56 "Hg10 mi
12:00 AM90 °FPassing clouds.3 mph41%29.56 "HgN/A
11:00 PM
Sep 2
91 °FClear.No wind46%29.56 "Hg10 mi
10:00 PM93 °FClear.3 mph39%29.56 "Hg10 mi
9:00 PM97 °FPassing clouds.8 mph44%29.53 "HgN/A
8:00 PM99 °FClear.1 mph25%29.53 "Hg10 mi
7:00 PM102 °FPassing clouds.6 mph20%29.50 "HgN/A
6:00 PM106 °FSunny.9 mph15%29.50 "Hg10 mi
5:00 PM108 °FSunny.9 mph19%29.50 "Hg10 mi
4:00 PM108 °FPassing clouds.9 mph20%29.50 "HgN/A
3:00 PM108 °FPassing clouds.13 mph22%29.50 "HgN/A
2:00 PM108 °FSunny.15 mph26%29.50 "Hg10 mi
1:00 PM108 °FPassing clouds.15 mph34%29.53 "HgN/A
12:00 PM108 °FPassing clouds.6 mph22%29.53 "HgN/A
11:00 AM104 °FSunny.2 mph28%29.56 "Hg10 mi
10:00 AM100 °FPassing clouds.3 mph35%29.56 "HgN/A
Weather by CustomWeather, © 2014

See weather overviewHow to use our weather pages